This demonstration page uses our WeatherBlox Daily Observations layout. Learn more.

Left ArrowRight Arrow

Hourly Observations for June 25, 2019

Temp ( °F °C ) Dew Point ( °F °C ) Humidity (%) Winds ( mph kmh ) Pressure ( in mb ) Visibility ( mi km ) Precip ( " mm )
12:53 am 00:53 Clear 68 20 59 15 73 73 SSE 10 17 29.73 1007 10 16 0.00 0.00
1:53 am 01:53 Clear 65 18.3 58 14.4 78 78 S 10 17 29.73 1007 10 16 0.00 0.00
2:53 am 02:53 Clear 66 18.9 57 13.9 73 73 W 14 22 29.80 1009 10 16 0.00 0.00
3:25 am 03:25 Clear 66 19 57 14 73 73 N 16 26 29.81 1010 10 16 0.00 0.00
3:53 am 03:53 Clear 65 18.3 55 12.8 70 70 NE 15 24 29.83 1010 10 16 0.00 0.00
4:53 am 04:53 Clear 63 17.2 54 12.2 73 73 E 6 9 29.84 1011 10 16 0.00 0.00
5:53 am 05:53 Clear 61 16.1 55 12.8 81 81 S 3 6 29.88 1012 10 16 0.00 0.00
6:53 am 06:53 Sunny 62 16.7 56 13.3 80 80 undefined N/A 29.87 1012 10 16 0.00 0.00
7:53 am 07:53 Sunny 66 18.9 56 13.3 70 70 E 8 13 29.86 1011 10 16 0.00 0.00
8:53 am 08:53 Sunny 70 21.1 58 14.4 66 66 SSE 7 11 29.88 1012 10 16 0.00 0.00
9:53 am 09:53 Sunny 74 23.3 60 15.6 62 62 SE 8 13 29.88 1012 10 16 0.00 0.00
10:53 am 10:53 Sunny 78 25.6 59 15 52 52 SSE 7 11 29.88 1012 10 16 0.00 0.00
11:53 am 11:53 Sunny 80 26.7 61 16.1 52 52 SSW 7 11 29.89 1012 10 16 0.00 0.00
12:53 pm 12:53 Mostly Sunny 82 27.8 64 17.8 55 55 VRB 3 6 29.88 1012 10 16 0.00 0.00
1:53 pm 13:53 Sunny 84 28.9 64 17.8 51 51 WNW 5 7 29.87 1012 10 16 0.00 0.00
2:53 pm 14:53 Sunny 86 30 65 18.3 49 49 VRB 5 7 29.86 1011 10 16 0.00 0.00
3:53 pm 15:53 Sunny 88 31.1 67 19.4 50 50 Calm 29.84 1011 10 16 0.00 0.00
4:23 pm 16:23 Sunny with Nearby Thunderstorms 86 30 66 18.9 51 51 WNW 5 7 29.76 1008 10 16 0.00 0.00
4:43 pm 16:43 Mostly Cloudy with Thunderstorms 84 28.9 67 19.4 57 57 Calm 29.75 1007 7 11 0.00 0.03
4:53 pm 16:53 Mostly Cloudy with Thunderstorms 83 28.3 70 21.1 65 65 ENE 3 6 29.83 1010 9 14 0.01 0.25
5:53 pm 17:53 Cloudy with Thunderstorms 72 22.2 66 18.9 82 82 SSW 14 22 29.89 1012 10 16 0.04 1.02
6:11 pm 18:11 Cloudy with Nearby Thunderstorms 72 22.2 60 15.6 66 66 S 10 17 29.83 1010 10 16 0.00 0.03
6:23 pm 18:23 Mostly Cloudy with Thunderstorms 70 21.1 57 13.9 64 64 Calm 29.84 1010 10 16 0.00 0.03
6:38 pm 18:38 Mostly Cloudy with Nearby Thunderstorms 70 21 59 15 69 69 SSE 9 15 29.85 1011 10 16 0.00 0.00
6:53 pm 18:53 Mostly Sunny 71 21.7 59 15 66 66 Calm 29.87 1012 10 16 0.00 0.03
7:53 pm 19:53 Sunny 70 21.1 60 15.6 71 71 S 5 7 29.88 1012 10 16 0.00 0.00
8:53 pm 20:53 Sunny 67 19.4 60 15.6 79 79 E 5 7 29.88 1012 10 16 0.00 0.00
9:53 pm 21:53 Mostly Clear 66 18.9 61 16.1 84 84 ENE 7 11 29.89 1012 10 16 0.00 0.00
10:53 pm 22:53 Partly Cloudy 69 20.6 59 15 70 70 SE 7 11 29.93 1014 10 16 0.00 0.00
11:53 pm 23:53 Clear 65 18.3 60 15.6 84 84 Calm 29.92 1013 10 16 0.00 0.00

Powered by Vaisala Xweather